Flag for Greenland Weather past 2 weeks in Qaanaaq, Greenland

Now
1 °F

Sunny.


Feels Like: -11 °F
Forecast: -14 / -3 °F
Wind: 7 mph from Southeast

Location: Thule A. B.

Current Time: Mar 27, 2015 at 9:26:33 AM

Latest Report: Mar 27, 2015 at 8:58 AM


Visibility: N/A

Pressure: 29.37 "Hg

Humidity: 78%

Dew point: -4 °F

Location of QaanaaqLocation

Historic Weather in Qaanaaq — Graph

°F

Qaanaaq temperature yesterday

Maximum temperature yesterday: 12 °F (at 2:58 PM)
Minimum temperature yesterday: -2 °F (at 7:58 AM)
Average temperature yesterday: 7 °F

Past Weeks' High & Low Weather Summary

 TemperatureHumidityPressure
High19 °F (Mar 17, 7:58 PM)92% (Mar 17, 7:58 AM)30.30 "Hg (Mar 17, 7:58 AM)
Low-20 °F (Mar 13, 1:58 AM)53% (Mar 17, 7:58 PM)28.92 "Hg (Mar 14, 7:58 PM)
Average0 °F70%29.57 "Hg
* Reported Mar 12 7:00 AM — Mar 27 7:58 AM, Qaanaaq, Weather by CustomWeather, © 2015

Note: Actual official high and low records may vary slightly from our data, if they occured in-between our weather recording intervals... More about our weather records

Advertising

Qaanaaq weather history for previous 24 hours

 ConditionsComfort  
Time TempWeatherWind HumidityBarometerVisibility
7:58 AM
Fri, Mar 27
3 °FClear.5 mph72%29.36 "HgN/A
6:58 AM3 °FClear.9 mph72%29.35 "HgN/A
5:58 AM1 °FClear.9 mph71%29.34 "HgN/A
4:58 AM1 °FClear.9 mph78%29.32 "HgN/A
3:58 AM3 °FClear.8 mph78%29.31 "HgN/A
2:58 AM3 °FPassing clouds.5 mph78%29.30 "HgN/A
1:58 AM1 °FPassing clouds.7 mph78%29.30 "HgN/A
12:58 AM3 °FClear.3 mph78%29.30 "HgN/A
11:58 PM
Thu, Mar 26
7 °FMostly cloudy.3 mph78%29.29 "HgN/A
11:00 PM7 °FOvercast.5 mph85%29.31 "Hg3 mi
9:58 PM5 °FPartly sunny.1 mph78%29.28 "HgN/A
8:58 PM5 °FSunny.7 mph72%29.27 "HgN/A
7:58 PM9 °FSunny.14 mph66%29.25 "HgN/A
6:58 PM9 °FSunny.13 mph66%29.24 "HgN/A
5:58 PM9 °FSunny.21 mph72%29.23 "HgN/A
4:58 PM10 °FPartly sunny.26 mph61%29.20 "HgN/A
3:58 PM10 °FSunny.5 mph67%29.20 "HgN/A
2:58 PM12 °FScattered clouds.6 mph62%29.19 "HgN/A
1:58 PM9 °FSunny.No wind66%29.19 "HgN/A
12:58 PM5 °FPassing clouds.5 mph72%29.19 "HgN/A
11:58 AM7 °FPassing clouds.2 mph72%29.18 "HgN/A
10:58 AM9 °FScattered clouds.1 mph72%29.17 "HgN/A
9:58 AM5 °FPassing clouds.2 mph72%29.16 "HgN/A
Weather by CustomWeather, © 2015

See weather overviewHow to use our weather pages